Flight Track Log - Related Links

Times and Time Zones

All times are in EDT time to prevent confusion due to time zone crossing. See the N775NC flight status page for this flight to view local times or setup timezone preferences in your user account.

Time Position Orientation Groundspeed Altitude Reporting Facility
EDT Latitude Longitude Course Direction KTS MPH feet Rate Location/Type
07:52AM 33.6333 -84.4833 93° East 197 227 2,800  Level Atlanta TRACON
07:53AM 33.6000 -84.5500 239° Southwest 259 298 5,600 1,947 Climbing Atlanta TRACON
07:54AM 33.6223 -84.0179 92° East  Level FlightAware Approximate
07:54AM 33.5333 -84.6000 212° Southwest 281 323 6,500  Level Atlanta TRACON
07:54AM 33.4944 -84.5942 173° South 284 327 7,600 2,129 Climbing Atlanta Center
07:55AM 33.6172 -83.8812 93° East  Level FlightAware Approximate
07:55AM 33.4531 -84.5194 124° Southeast 293 337 9,800  Level Atlanta Center
07:56AM 33.6738 -83.7625 86° East  Level Estimated
07:56AM 33.4575 -84.4122 87° East 258 297 11,500  Level Atlanta Center
07:57AM 33.6686 -83.6258 93° East  Level FlightAware Approximate
07:57AM 33.4747 -84.2978 80° East 310 357 13,300  Level Atlanta Center
07:58AM 33.4978 -84.1783 77° East 352 405 15,100 1,550 Climbing Atlanta Center
07:59AM 33.5186 -84.0539 79° East 372 428 16,400 1,500 Climbing Atlanta Center
08:00AM 33.5292 -83.9242 84° East 378 435 18,100 1,700 Climbing Atlanta Center
08:01AM 33.5436 -83.7897 83° East 390 449 19,800 1,550 Climbing Atlanta Center
08:02AM 33.5578 -83.6575 83° East 395 455 21,200 1,250 Climbing Atlanta Center
08:03AM 33.5697 -83.5203 84° East 400 460 22,300 1,100 Climbing Atlanta Center
08:04AM 33.5858 -83.3756 82° East 413 475 23,400 1,050 Climbing Atlanta Center
08:05AM 33.5994 -83.2333 83° East 424 488 24,400 1,000 Climbing Atlanta Center
08:06AM 33.6172 -83.0833 82° East 435 501 25,400 950 Climbing Atlanta Center
08:07AM 33.6328 -82.9361 83° East 441 507 26,300 900 Climbing Atlanta Center
08:08AM 33.6481 -82.7861 83° East 446 513 27,200 900 Climbing Atlanta Center
08:09AM 33.6653 -82.6486 81° East 451 519 28,100 850 Climbing Atlanta Center
08:10AM 33.6800 -82.4911 84° East 456 525 28,900 286 Climbing Atlanta Center
08:12AM 33.7047 -82.1411 85° East 498 573 29,000 32 Climbing Jacksonville Center
08:13AM 33.7225 -81.9811 82° East 485 558 29,000  Level Jacksonville Center
08:14AM 33.7506 -81.8208 78° East 480 552 29,000  Level Jacksonville Center
08:15AM 33.7783 -81.6633 78° East 485 558 29,000  Level Jacksonville Center
08:16AM 33.8017 -81.5031 80° East 485 558 29,000  Level Jacksonville Center
08:17AM 33.8308 -81.3200 79° East 492 566 29,000  Level Jacksonville Center
08:18AM 33.8517 -81.1597 81° East 492 566 29,000  Level Jacksonville Center
08:19AM 33.8933 -81.0061 72° East 485 558 29,000 -101 Level Jacksonville Center
08:20AM 33.9961 -80.9061 39° Northeast 456 525 28,800 -650 Descending Jacksonville Center
08:21AM 34.1075 -80.8233 32° Northeast 445 512 27,700 -1,091 Descending Jacksonville Center
08:22AM 34.2078 -80.7181 41° Northeast 459 528 26,600 -1,109 Descending Jacksonville Center
08:23AM 34.3103 -80.6125 40° Northeast 471 542 25,500 -1,050 Descending Jacksonville Center
08:24AM 34.4169 -80.5192 36° Northeast 476 548 24,500 -852 Descending Jacksonville Center
08:26AM 34.6164 -80.3261 39° Northeast 477 549 23,000 -520 Descending Washington Center
08:27AM 34.7222 -80.2314 36° Northeast 483 556 23,000  Level Washington Center
08:28AM 34.8222 -80.1256 41° Northeast 477 549 23,000  Level Washington Center
08:29AM 34.9053 -80.0264 44° Northeast 471 542 23,000 -738 Level Washington Center
08:30AM 34.9811 -79.8964 55° Northeast 461 531 21,500 -2,168 Descending Washington Center
08:31AM 35.0503 -79.7681 57° Northeast 461 531 18,700 -2,874 Descending Washington Center
08:32AM 35.1394 -79.6608 45° Northeast 443 510 15,800 -2,969 Descending Washington Center
08:33AM 35.2019 -79.6031 37° Northeast 417 480 13,900 -2,477 Descending Washington Center
08:34AM 35.3175 -79.5222 30° Northeast 375 432 11,300 -1,299 Descending Washington Center
08:35AM 35.4069 -79.4631 28° Northeast 376 433 11,000 -148 Descending Washington Center
08:36AM 35.4964 -79.4036 28° Northeast 367 422 11,000  Level Washington Center
08:37AM 35.5581 -79.3017 53° Northeast 379 436 11,000  Level Washington Center
08:38AM 35.6111 -79.2047 56° Northeast 341 392 11,000  Level Washington Center
08:39AM 35.6703 -79.1153 51° Northeast 328 377 11,000 -347 Level Washington Center
08:40AM 35.7269 -79.0283 51° Northeast 326 375 10,300 -942 Descending Washington Center
08:41AM 35.7794 -78.9486 51° Northeast 299 344 9,100 -1,131 Descending Washington Center
08:42AM 35.8614 -78.9214 15° North 275 316 8,000 -1,388 Descending Washington Center
08:43AM 35.9317 -78.8756 28° Northeast 280 322 6,300 -1,686 Descending Washington Center
08:44AM 35.9897 -78.8061 44° Northeast 289 333 4,600 -1,289 Descending Washington Center
08:45AM 36.0394 -78.7414 46° Northeast 264 304 3,700 -836 Descending Washington Center
08:46AM 36.0186 -78.6686 109° East 227 261 2,900 -732 Descending Washington Center
08:47AM 35.9681 -78.6794 190° South 186 214 2,200 -645 Descending Washington Center
08:48AM 35.9397 -78.7269 234° Southwest 164 189 1,600 -645 Descending Washington Center
08:49AM 35.9097 -78.7567 219° Southwest 131 151 900 -689 Descending Washington Center

Login

Don't have an account? Register now (free) for customized features, flight alerts, and more!